Terug naar catalogus

STARLINK-4497

ActiefCommunicatieVLEO
NORAD 53411·PAYLOAD·🇺🇸 United States

Gelanceerd Aug 10, 2022 vanaf Cape Canaveral Space Force Station

Loading…

Volgende Passages (komende 24 uur)

TLE

VersSource: CelesTrak SupGP

Epoch: Sep 14, 2026, 21:13 UTC

1 53411C 22097Z   26257.88451389  .00119540  00000+0  61547-2 0  2573
2 53411  53.1605 343.7899 0001250  87.2079  29.5660 15.15845418    11

Volg STARLINK-4497 in realtime met AllMySat

Download on the App Store